Miscellaneous Local Product
Issued by NWS North Platte, NE

Current Version | Previous Version | Text Only | Print | Product List | Glossary On
Versions: 1 2 3 4 5 6 7 8 9 10 11 12 13 14 15 16 17 18 19 20 21 22 23 24 25 26 27 28 29 30 31 32 33 34 35 36 37 38 39 40 41 42 43 44 45 46 47 48 49 50
000
AXUS43 KLBF 032010
MISLBF


WESTERN AND NORTH CENTRAL NEBRASKA HOURLY WEATHER ROUNDUP
NATIONAL WEATHER SERVICE NORTH PLATTE NE
300 PM CDT FRI JUL 03 2015

***STATIONS NOT REPORTING VARIABLES SUCH AS SKY/WEATHER OR
PRESSURE ARE PROVIDED BY THE NEBRASKA DEPARTMENT OF
ROADS...RAWS...AND APRS NETWORKS...AND ARE NOT UNDER
NATIONAL WEATHER SERVICE QUALITY CONTROL***

...OBSERVATIONS IN AND NEAR THE EASTERN PANHANDLE OF NEBRASKA...

CITY           SKY/WX    TMP DP  RH WIND       PRES   REMARKS
PINE RIDGE     SUNNY     80  57  45 NW6       30.05F
CHADRON        SUNNY     82  54  37 VRB3      30.04F
ALLIANCE       MOSUNNY   79  57  46 VRB5      30.08F
SIDNEY         MOSUNNY   84  56  38 VRB5      30.11F
WHITECLAY        N/A     81  56  41 CALM        N/A
CRESCENT LAKE    N/A     86  57  37 CALM        N/A
BIG SPRINGS      N/A     83  57  41 E3          N/A
$$

...OBSERVATIONS IN NORTH CENTRAL NEBRASKA...

CITY           SKY/WX    TMP DP  RH WIND       PRES   REMARKS
VALENTINE      PTSUNNY   81  60  48 CALM      30.02F
THEDFORD       PTSUNNY   81  61  51 E6        30.05S
AINSWORTH      MOSUNNY   80  59  47 CALM      30.03F
O`NEILL        SUNNY     78  63  60 CALM      30.02F
ORD            SUNNY     81  59  47 VRB3      30.00F
BROKEN BOW     MOSUNNY   82  60  47 CALM      30.03F
VALENTINE NWR    N/A     81  60  48 E6          N/A
SPRINGVIEW       N/A     85  61  44 CALM        N/A
HALSEY           N/A     83  59  44 CALM        N/A
BREWSTER         N/A     86  61  42 S5          N/A
ROSE             N/A     90  70  51 S3          N/A  HX  95
NEWPORT          N/A     79  61  52 E5          N/A
SARGENT          N/A     79  64  59 CALM        N/A
CHAMBERS         N/A     81  62  51 CALM        N/A
EWING            N/A     78  67  68 S3          N/A
$$

...OBSERVATIONS IN SOUTHWEST NEBRASKA AND FAR NORTHEAST COLORADO...

CITY           SKY/WX    TMP DP  RH WIND       PRES   REMARKS
WRAY           FAIR      87  53  30 CALM      30.07F
HOLYOKE        FAIR      86  52  30 CALM      30.07F
IMPERIAL       PTSUNNY   83  55  38 VRB5      30.06S
OGALLALA       MOSUNNY   82  56  41 N6        30.05F
NORTH PLATTE   MOSUNNY   82  60  47 VRB3      30.03F
MCCOOK         SUNNY     82  61  48 VRB5      30.03F
LEXINGTON      SUNNY     79  62  56 N5        30.04F
PAXTON           N/A     81  61  50 CALM        N/A
GOTHENBURG       N/A     81  58  45 CALM        N/A
CALLAWAY         N/A     82  68  62 CALM        N/A
$$

...NORTH PLATTE AREA...

CITY           SKY/WX    TMP DP  RH WIND       PRES   REMARKS
AIRPORT        MOSUNNY   82  60  47 VRB3      30.03F
DOWNTOWN         N/A     80  60  49 E3          N/A
HILLCREST        N/A     80  58  47 MISG        N/A
$$

...SOME WEATHER OBSERVATIONS FROM AROUND THE REGION...

CITY           SKY/WX    TMP DP  RH WIND       PRES   REMARKS
DENVER         MOSUNNY   81  57  43 VRB5      30.14F
LARAMIE        MOSUNNY   80  41  24 E8        30.23F
CHEYENNE       SUNNY     77  57  50 VRB7      30.18F
SCOTTSBLUFF    SUNNY     84  54  35 NE7       30.07F
RAPID CITY     SUNNY     79  60  52 SE9       30.03F
PIERRE         MOSUNNY   78  64  61 VRB3      29.97F HAZE
WINNER         FAIR      83  53  35 VRB5      29.99F
SIOUX FALLS    CLOUDY    76  63  64 NW7       29.99F
OMAHA          PTSUNNY   76  55  48 CALM      29.99F
GRAND ISLAND   CLOUDY    76  60  57 N3        30.04F
KANSAS CITY    SUNNY     77  57  50 NE8       29.97F
WICHITA        PTSUNNY   85  64  49 N13       29.94F
HAYS           MOSUNNY   82  61  47 N12G17    30.01F
LIBERAL        MOSUNNY   90  63  40 S5        30.03F HX  90
GOODLAND       MOSUNNY   85  55  35 SW5       30.06F
$$



USA.gov is the U.S. government's official web portal to all federal, state and local government web resources and services.